Theta_e
321 321 321 321 321 322 322 323 323 323 323 324 324 324 324 324 323 312 303 311 314 330 318 307 306 304 304 302 302 297 290 287 289 290 293 293 293 295 296 294 295 298 295 296 297
319 320 320 320 320 320 321 321 322 322 322 322 323 324 323 323 311 305 317 329 332 330 307 304 301 302 299 300 300 295 287 289 293 293 292 294 293 294 295 292 293 296 295 295 296
319 319 319 319 319 319 320 320 320 321 321 321 322 323 323 320 301 299 329 332 334 324 307 304 303 302 296 298 298 295 292 293 296 298 296 295 293 295 293 292 295 296 297 294 294
319 318 318 318 318 319 319 320 320 320 320 320 321 323 323 311 290 302 331 333 332 310 305 302 300 297 295 295 298 293 297 297 298 298 296 294 295 294 294 300 298 298 296 294 293
319 318 318 317 318 319 319 319 319 319 320 320 321 323 312 297 299 313 328 328 312 307 303 300 297 297 294 294 295 294 296 298 298 298 297 296 295 295 295 297 298 297 296 295 295
318 318 317 318 318 319 319 319 319 319 319 319 321 322 302 292 304 315 313 309 306 304 301 300 297 299 296 296 294 294 296 296 297 296 296 296 296 294 300 296 297 296 296 295 295
318 318 317 318 319 319 320 320 320 320 319 320 320 317 302 298 306 310 307 304 305 304 300 301 301 298 295 294 297 295 292 293 294 295 295 295 293 291 300 295 296 295 295 295 295
318 317 317 318 319 319 320 320 321 320 320 320 320 309 295 305 304 304 304 301 303 304 303 302 302 299 296 297 293 289 289 286 290 293 293 295 289 296 295 295 295 295 293 294 296
318 317 317 318 319 319 320 320 319 319 319 321 310 302 296 309 302 304 302 301 301 302 301 305 301 295 294 288 286 284 282 283 287 293 292 291 288 295 294 292 294 294 294 293 294
318 318 318 318 319 319 320 319 318 315 316 316 310 296 299 299 303 303 301 302 299 299 298 296 294 289 288 286 281 282 281 283 284 289 289 288 288 294 296 293 294 295 295 294 295
318 318 319 319 319 320 313 302 298 295 299 296 298 297 298 302 304 300 302 301 299 295 289 292 287 285 289 290 291 284 283 283 287 290 287 289 290 292 296 295 293 295 297 298 299
319 319 319 319 319 319 305 300 298 297 292 299 297 298 300 302 297 299 301 295 294 289 290 288 284 291 290 289 288 287 286 286 290 292 287 288 288 292 293 295 297 298 298 297 299
319 319 318 319 318 310 301 300 305 303 292 295 298 295 296 300 295 296 299 294 291 289 289 288 290 293 290 287 287 286 284 286 286 288 287 286 287 289 291 294 297 298 299 299 299
319 319 319 318 310 305 301 304 304 300 286 289 291 294 297 298 292 297 297 295 290 289 288 287 291 290 288 287 288 285 289 288 287 283 282 284 280 284 289 289 291 294 296 297 297
319 319 319 318 307 306 306 305 302 294 282 292 291 299 298 292 291 293 295 293 288 288 288 287 287 286 286 289 289 287 289 287 284 281 281 282 279 283 286 285 290 294 296 297 298
319 319 318 313 309 310 309 305 298 289 283 289 291 291 290 291 291 291 292 293 292 288 288 289 289 289 289 289 289 288 285 284 281 280 277 282 281 286 284 287 288 291 292 294 296
315 318 315 314 309 309 309 305 293 286 293 288 287 290 288 287 289 288 288 287 286 282 281 283 286 288 290 286 287 286 283 278 275 274 277 281 281 287 287 288 290 292 293 295 295
312 315 314 315 311 310 309 300 287 292 289 293 290 290 288 290 290 289 285 284 286 284 281 281 283 286 288 289 286 284 285 279 273 276 280 280 277 286 290 291 292 291 292 291 292
312 314 313 314 312 312 304 290 291 295 296 293 295 291 290 288 290 287 284 284 287 287 285 281 282 286 286 287 290 283 282 288 281 279 277 279 284 288 294 294 289 289 290 289 290
304 305 306 313 313 308 297 293 293 296 294 293 289 291 285 285 285 285 284 287 287 288 288 287 283 285 284 285 285 286 286 280 280 274 273 279 281 282 289 291 292 290 290 290 289
301 295 301 313 311 300 290 292 296 299 299 295 293 292 292 290 291 289 290 291 289 289 288 288 286 286 286 284 286 283 281 282 283 282 278 277 282 288 292 294 292 291 289 289 289
297 290 304 312 296 296 292 295 296 296 297 297 296 295 293 293 291 290 290 293 294 291 288 289 287 283 286 291 287 285 286 286 281 280 282 282 282 292 294 295 295 292 292 291 291
292 291 305 307 288 289 293 293 295 294 294 294 294 295 294 291 288 290 291 295 295 294 291 291 285 281 282 285 286 284 288 287 287 285 281 278 281 294 294 294 296 292 292 291 291
292 285 295 298 298 293 290 290 290 296 295 296 294 295 292 290 292 289 289 293 292 292 296 295 288 285 280 283 286 282 284 286 286 281 281 282 284 289 291 292 295 295 292 293 292
290 287 288 286 288 290 290 290 288 287 293 293 291 291 290 286 287 287 288 285 288 290 289 289 282 285 285 286 286 285 285 285 284 285 282 284 285 289 291 292 293 294 295 293 288
284 285 288 285 285 285 287 287 287 289 289 288 288 283 284 282 283 281 279 281 280 283 281 284 278 281 278 281 283 281 284 285 286 286 285 286 286 289 292 287 284 288 288 286 286
285 288 286 283 282 280 281 283 282 283 284 286 282 280 279 281 282 283 283 282 281 279 277 276 273 273 271 277 277 274 279 282 283 286 282 279 279 280 281 281 282 283 284 284 285
Wind_Speed
13 13 14 14 15 14 14 14 14 14 13 12 12 12 12 12 9 1 6 9 5 12 6 5 2 1 3 1 2 4 4 3 6 4 5 2 3 2 1 2 3 7 4 2 5
11 13 14 15 15 15 15 14 14 14 14 14 13 12 11 9 1 7 8 4 7 14 6 7 4 3 1 1 1 4 4 9 6 4 4 3 3 3 1 3 4 5 1 3 7
10 11 13 14 15 15 16 16 15 15 15 14 14 14 12 4 4 7 1 8 13 11 6 5 5 5 2 2 4 5 7 6 6 8 4 4 4 4 4 7 11 10 8 7 8
9 10 12 13 14 15 16 16 16 16 16 15 14 14 12 3 6 2 5 8 9 6 7 5 4 4 4 5 4 3 9 6 5 4 2 4 4 5 9 18 7 12 3 8 12
8 9 10 12 14 15 16 16 16 16 15 14 14 12 3 2 11 3 8 8 6 5 6 5 5 5 5 4 2 5 4 6 6 8 8 5 11 8 12 13 10 8 7 12 13
8 8 10 11 13 15 17 18 17 15 15 13 12 9 2 5 2 7 8 6 4 5 5 6 4 6 4 4 6 2 5 8 6 6 6 6 13 5 21 2 11 9 14 12 14
8 10 10 12 13 15 17 18 18 16 14 12 8 2 2 15 2 6 8 5 6 5 4 5 5 3 1 4 3 4 9 9 7 7 9 6 14 13 26 4 12 11 12 10 17
9 10 11 12 14 17 19 18 18 16 14 9 4 2 9 2 4 5 4 3 4 5 5 4 6 4 4 2 7 4 1 6 2 7 4 9 16 18 7 8 15 13 10 10 14
9 11 11 13 14 17 20 21 12 4 4 9 5 3 10 3 2 4 4 4 5 3 2 3 5 4 2 5 5 2 6 8 14 12 6 8 10 13 2 5 12 12 12 9 13
9 11 12 13 15 18 21 13 2 4 4 2 1 2 5 5 2 3 2 5 4 5 4 4 5 2 2 5 8 9 6 6 7 7 6 6 15 15 14 5 12 14 14 13 14
9 9 11 13 15 18 10 3 6 4 4 7 6 5 5 2 1 3 3 5 4 5 5 1 4 9 21 15 15 3 5 8 8 8 4 12 18 16 19 14 14 18 19 21 22
9 9 11 11 13 16 3 6 3 4 9 8 13 8 4 2 3 3 4 6 4 6 4 2 7 18 2 3 7 9 15 18 17 19 6 15 23 17 17 16 25 26 22 21 22
10 8 9 11 13 4 3 5 5 6 2 11 6 4 5 8 8 6 9 5 6 7 10 13 10 10 5 4 10 8 7 18 15 9 6 11 20 15 12 20 24 26 25 26 20
9 8 8 9 4 1 2 3 4 3 3 8 3 2 1 2 3 2 2 5 3 10 6 7 5 10 5 7 9 16 11 14 13 3 10 2 20 6 10 13 9 22 22 16 18
7 7 6 0 4 2 3 3 4 1 8 3 1 3 2 5 0 3 1 2 5 6 5 10 4 4 5 13 10 13 6 8 3 4 7 7 5 2 3 5 15 20 21 19 18
4 5 4 2 1 4 3 3 2 4 10 4 1 1 2 0 1 1 1 2 2 3 4 11 1 6 11 8 11 1 2 2 5 4 7 8 9 33 7 9 5 9 10 14 16
9 4 6 3 3 1 3 0 3 7 3 4 3 4 3 4 3 4 4 4 6 1 5 1 6 4 5 3 2 4 5 5 4 2 12 4 8 28 6 6 9 11 12 14 12
10 3 3 3 2 2 2 1 11 7 7 5 2 2 5 7 7 6 3 4 6 2 1 4 14 9 7 10 10 10 12 8 8 11 16 3 9 18 13 8 8 8 11 9 14
11 0 2 3 4 1 2 7 8 8 6 4 5 6 7 4 5 4 8 7 8 14 11 4 11 3 1 3 8 4 7 9 5 3 3 7 16 12 26 28 7 9 8 9 10
2 2 4 5 8 3 6 19 7 6 1 2 7 6 5 5 5 3 5 4 5 11 3 4 13 6 2 2 2 6 2 2 1 4 10 10 12 12 23 22 14 9 8 10 7
1 2 4 9 5 3 14 11 7 8 6 5 10 14 13 12 10 8 7 6 5 4 7 5 9 20 4 8 16 4 5 5 2 8 18 20 13 11 26 31 19 11 8 8 9
1 4 1 8 6 4 14 15 5 12 5 11 6 15 19 14 9 11 11 12 2 1 8 9 5 7 15 15 6 5 16 19 13 12 12 18 20 10 19 19 20 16 12 9 10
3 4 1 3 9 12 9 11 12 22 21 6 9 7 10 18 16 15 16 11 9 6 5 2 5 11 10 8 3 8 16 13 16 18 24 26 20 16 16 24 26 15 11 9 8
2 3 2 3 8 9 13 19 20 9 11 12 13 13 14 17 17 10 14 4 8 4 9 8 13 25 21 15 7 7 6 11 18 14 19 21 26 21 23 28 33 18 9 8 5
1 3 2 3 9 17 18 13 17 15 5 2 6 15 14 13 8 10 2 3 4 6 5 2 6 7 13 14 15 18 21 22 31 29 28 27 29 24 25 26 25 15 14 14 15
1 2 3 4 6 5 3 12 18 16 9 9 7 6 4 5 2 1 6 2 4 4 7 2 9 14 23 25 24 28 26 31 22 27 26 29 31 23 21 18 19 16 14 14 15
1 2 0 4 2 1 3 4 4 5 1 4 7 6 6 2 7 9 10 12 15 14 19 6 4 10 25 27 23 18 23 22 18 22 15 14 8 17 17 21 18 14 17 17 17
Wind_Direction
13 11 8 5 2 359 359 358 358 356 352 348 349 348 342 336 320 185 234 217 173 157 101 111 97 110 63 84 106 121 63 244 252 195 257 189 217 194 189 227 231 209 196 316 113
3 359 358 356 354 352 352 353 350 347 345 342 342 341 336 337 289 241 251 215 143 146 111 144 162 123 47 217 150 113 151 225 216 227 254 293 208 261 254 224 256 276 236 85 138
352 353 351 350 350 349 347 346 344 341 337 336 336 335 326 314 343 251 351 187 161 160 133 144 105 131 210 155 205 177 216 218 255 234 250 255 251 227 214 256 219 218 228 171 179
345 345 344 344 344 342 342 340 336 333 331 331 330 330 321 269 295 223 139 151 152 125 115 136 130 156 202 216 196 224 247 217 258 224 263 244 262 246 191 248 209 229 179 167 191
332 331 334 336 335 335 333 330 327 324 322 323 324 329 337 11 253 135 123 119 108 124 167 155 155 154 196 209 246 223 255 260 261 272 260 306 253 241 260 251 249 240 192 202 206
317 319 321 321 321 322 321 320 316 314 313 316 320 320 147 242 222 148 123 114 133 145 160 137 196 207 231 229 186 250 260 263 268 241 249 221 272 139 264 238 247 235 235 220 211
307 311 315 314 313 312 310 309 306 299 296 298 304 277 225 237 46 137 140 167 163 151 150 191 164 162 174 295 293 289 307 309 204 227 230 149 287 231 257 197 266 246 241 239 228
299 303 307 308 310 310 309 309 302 291 285 272 218 174 245 321 119 141 167 155 152 163 155 170 168 172 181 294 356 330 321 324 311 120 250 144 265 260 273 211 262 268 260 243 244
287 297 303 309 312 312 313 316 327 344 125 135 112 154 262 127 216 209 143 149 118 80 55 110 125 172 79 103 359 304 238 225 306 196 179 185 248 275 284 173 272 283 278 266 271
285 298 306 311 316 315 321 323 298 85 75 170 320 37 274 251 207 122 102 117 107 107 54 57 48 144 62 118 225 226 219 249 233 274 183 227 249 281 283 198 250 264 274 270 263
276 289 302 309 318 320 345 17 14 348 21 201 207 251 286 320 45 62 133 102 101 73 172 217 134 200 228 204 229 165 224 238 257 262 262 247 264 256 268 274 264 261 257 257 255
267 281 296 306 320 321 36 77 156 182 301 255 251 255 252 106 294 175 131 130 144 197 126 56 222 231 292 170 216 242 258 265 272 268 255 269 266 262 249 252 257 264 265 256 258
267 275 288 309 325 4 63 164 147 137 215 289 223 197 234 151 219 228 145 138 164 179 203 217 234 226 219 246 253 224 228 259 261 306 240 284 276 240 254 248 257 265 262 266 262
265 276 288 315 321 254 235 195 162 153 333 276 274 287 102 160 221 310 209 141 192 218 196 231 268 214 160 218 222 270 226 254 268 333 276 24 295 176 233 234 240 252 265 266 270
258 270 272 145 310 324 350 142 141 48 300 261 187 299 35 143 105 346 231 96 206 193 149 244 191 160 193 226 165 244 197 229 196 204 322 190 263 176 173 229 240 253 260 270 264
260 246 176 143 146 220 140 101 310 49 250 309 91 24 99 271 187 69 184 48 125 189 218 242 278 183 217 212 185 52 92 86 55 117 264 197 164 286 187 207 240 249 257 261 270
10 314 162 148 215 155 142 40 305 220 3 248 183 161 214 215 250 182 173 189 197 305 254 187 212 223 177 251 169 142 81 306 322 135 232 98 177 258 304 247 221 239 258 268 284
347 310 226 270 176 110 62 118 236 190 250 320 235 135 198 163 233 186 179 255 261 277 283 211 284 185 174 197 197 189 167 183 222 256 265 100 238 266 266 266 262 254 252 291 296
325 205 193 234 170 285 144 224 235 196 206 238 315 297 260 256 217 173 204 216 217 185 219 194 267 183 234 185 167 170 189 241 274 349 296 247 270 295 277 286 231 277 305 297 291
357 304 219 168 145 112 239 242 230 192 215 208 227 218 237 189 185 195 212 190 221 193 204 273 288 179 226 226 218 194 294 294 156 242 244 220 240 251 282 269 271 326 297 298 315
5 297 253 138 131 180 235 239 245 210 187 212 258 249 258 272 235 240 235 271 213 214 192 203 231 255 29 209 250 228 246 223 250 207 249 257 251 229 261 270 299 273 262 262 287
189 228 250 152 199 215 234 236 205 252 222 252 251 258 258 268 260 265 263 247 309 52 239 212 216 229 254 264 226 228 238 236 239 255 244 256 248 256 265 280 289 284 290 299 290
233 252 190 207 225 230 243 257 249 257 254 237 239 237 254 260 272 257 267 278 297 252 244 155 226 284 280 309 241 203 238 237 254 267 260 265 269 264 276 280 283 291 302 283 268
296 279 233 250 249 254 241 244 252 251 256 239 259 261 270 268 264 261 280 305 344 323 315 336 257 244 254 257 297 264 253 243 232 250 262 259 272 271 277 281 282 285 275 301 323
246 256 335 250 238 246 250 268 270 273 236 238 255 243 263 266 282 268 302 325 299 27 15 36 278 289 292 289 293 293 288 281 269 272 268 275 274 279 284 287 287 315 330 6 27
261 310 341 281 321 306 245 255 257 278 255 272 271 47 6 310 15 46 18 17 278 334 1 311 275 299 286 283 277 280 277 257 266 272 270 273 276 333 333 7 5 357 19 26 4
260 346 130 291 306 318 271 294 345 13 239 49 48 0 305 326 322 292 259 249 250 265 277 243 250 283 276 282 291 275 254 267 260 261 311 300 348 337 7 352 343 22 14 2 350